RANGE-A (43773 NORAD) Tracking and Keplerian Element Data

This shows tracking and keplerian element data for the satellite.

Feedback or suggestion? Click here.




ElementValue
Catalog43773
NameRANGE-A
Epoch Orbit3381
Epoch Day199.14899339
Epoch Year2019
RAAN270.5134
Inclination97.7389
Eccentricity0.0012652
Argument of Perigee217.6103
Mean Anonmoly142.4234
Mean Motion14.9481137
Decay Rate5.07E-06
L11 43773U 18099R 19199.14899339 .00000507 00000-0 51806-4 0 9992
L22 43773 97.7389 270.5134 0012652 217.6103 142.4234 14.94811370 33810

Live tracking and technical data element details for RANGE-A (NORAD 43773). RANGE-A can be tracked NOW for your location showing map with azimuth and elevation plus other details from your city location.

Track the satellite on the map from your city or location and see movement details for azimuth, elevation, latitude, longitude, range, height, and movement on the map or in text.







IsCatalogInMostPopularTable: catalog: 43773, numindb: 73
Update: records affected: 1



GetName: 43773 RANGE-A

Hit Count: updated at: Sat, 20 Jul 2019 22:21:00 GMT